This is the latest recevied weather packets stored in our database for station/object NR6G-5. If no packets are shown the sender has not sent any weather packets the latest 10 day(s).
| Time | Temp. | Humidity | Pressure | Rain* | Wind** | Luminosity | Snow |
|---|---|---|---|---|---|---|---|
| 1777627400 | 15.56° C | 73% | 1011.7 hPa | 0 mm | - | - | - |
| 1777626499 | 15.56° C | 73% | 1011.8 hPa | 0 mm | - | - | - |
| 1777625599 | 16.67° C | 68% | 1011.8 hPa | 0 mm | - | - | - |
| 1777625298 | 16.67° C | 68% | 1011.8 hPa | 0 mm | - | - | - |
| 1777624998 | 16.67° C | 68% | 1011.9 hPa | 0 mm | - | - | - |
| 1777624699 | 16.11° C | 69% | 1011.9 hPa | 0 mm | - | - | - |
| 1777624098 | 16.11° C | 72% | 1011.9 hPa | 0 mm | - | - | - |
| 1777623799 | 16.11° C | 71% | 1011.9 hPa | 0 mm | - | - | - |
| 1777623502 | 16.67° C | 70% | 1011.9 hPa | 0 mm | - | - | - |
| 1777623198 | 16.67° C | 69% | 1011.8 hPa | 0 mm | - | - | - |
| 1777622898 | 16.67° C | 70% | 1011.9 hPa | 0 mm | - | - | - |
| 1777622298 | 17.22° C | 68% | 1011.9 hPa | 0 mm | - | - | - |
| 1777621998 | 17.78° C | 65% | 1011.9 hPa | 0 mm | - | - | - |
| 1777621400 | 17.22° C | 64% | 1011.8 hPa | 0 mm | - | - | - |
| 1777621098 | 17.22° C | 63% | 1011.8 hPa | 0 mm | - | - | - |
| 1777620171 | 17.22° C | 63% | 1011.7 hPa | 0 mm | - | - | - |
| 1777619872 | 17.22° C | 63% | 1011.7 hPa | 0 mm | - | - | - |
| 1777619573 | 17.22° C | 64% | 1011.7 hPa | 0 mm | - | - | - |
| 1777619272 | 17.22° C | 64% | 1011.6 hPa | 0 mm | - | - | - |
| 1777618956 | 17.22° C | 65% | 1011.6 hPa | 0 mm | - | - | - |
| 1777618655 | 17.22° C | 65% | 1011.5 hPa | 0 mm | - | - | - |
| 1777618355 | 16.67° C | 66% | 1011.5 hPa | 0 mm | - | - | - |
| 1777618055 | 17.22° C | 66% | 1011.4 hPa | 0 mm | - | - | - |
| 1777617756 | 17.22° C | 65% | 1011.3 hPa | 0 mm | - | - | - |
| 1777617455 | 17.22° C | 65% | 1011.4 hPa | 0 mm | - | - | - |
* Rain latest hour (hover to see other rain measurements)
** Current wind speed in m/s (hover to see current wind gust speed)